Weather History for KFAY - August, 2014

Change the Weather History Date:

Friday, August 8, 2014

  Actual Average Record
Temperature  
Mean Temperature 79 °F 81 °F  
Max Temperature 88 °F 91 °F 105 °F (2007)
Min Temperature 69 °F 71 °F 55 °F (1948)
Degree Days  
Heating Degree Days 0 0  
Month to date heating degree days 0 0  
Since 1 June heating degree days 0 0  
Since 1 July heating degree days 0 0  
Cooling Degree Days 14 15  
Month to date cooling degree days 99 127  
Year to date cooling degree days 1406 1314  
Since 1 June cooling degree days 1040 1030  
Growing Degree Days 28 (Base 50)    
Moisture  
Dew Point 67 °F    
Average Humidity 72    
Maximum Humidity 100    
Minimum Humidity 43    
Precipitation  
Precipitation 0.00 in 0.18 in 2.96 in (1996)
Month to date precipitation 0.30 1.50  
Year to date precipitation 23.30 27.44  
Sea Level Pressure  
Sea Level Pressure 30.04 in    
Wind  
Wind Speed 5 mph (NE)    
Max Wind Speed 12 mph    
Max Gust Speed 15 mph    
Visibility 6 miles    
Events      
T = Trace of Precipitation, MM = Missing Value Source: NWS Daily Summary

Daily Weather History Graph

Daily Weather History Graph

Search for Another Location

Airport or City:

Trip Planner

Search our weather history database for the weather conditions in past years. The results will help you decide how hot, cold, wet, or windy it might be!

Date:

Astronomy

Aug. 08, 2014 Rise Set
Actual Time 6:30 AM EDT 8:11 PM EDT
Civil Twilight 6:02 AM EDT 8:38 PM EDT
Nautical Twilight 5:30 AM EDT 9:11 PM EDT
Astronomical Twilight 4:55 AM EDT 9:46 PM EDT
Moon 6:20 PM EDT (8/8) 4:02 AM EDT (8/8)
Length of Visible Light 14h 35m
Length of Day
13h 41m
Waxing Gibbous, 93% of the Moon is Illuminated
Aug 8
Waxing Gibbous
Aug 10
Full
Aug 17
Last Quarter
Aug 25
New
Sep 2
First Quarter

Hourly Weather History & Observations

Time (EDT) Temp. Heat Index Dew Point Humidity Pressure Visibility Wind Dir Wind Speed Gust Speed Precip Events Conditions
12:53 AM 72.0 °F - 70.0 °F 93% 30.00 in 5.0 mi North 3.5 mph - N/A   Clear
1:53 AM 72.0 °F - 69.1 °F 91% 30.01 in 5.0 mi NE 6.9 mph - N/A   Clear
2:53 AM 72.0 °F - 70.0 °F 93% 30.00 in 4.0 mi NE 4.6 mph - N/A   Clear
3:28 AM 70.0 °F - 69.1 °F 97% 30.02 in 2.5 mi NE 4.6 mph - N/A   Clear
3:53 AM 70.0 °F - 69.1 °F 97% 30.00 in 2.5 mi North 3.5 mph - N/A   Clear
4:38 AM 69.1 °F - 68.0 °F 96% 30.02 in 1.2 mi NNE 4.6 mph - N/A   Clear
4:53 AM 70.0 °F - 68.0 °F 93% 30.01 in 1.5 mi NNE 5.8 mph - N/A   Clear
5:46 AM 70.0 °F - 68.0 °F 93% 30.03 in 2.0 mi NNE 6.9 mph - N/A   Clear
5:53 AM 70.0 °F - 69.1 °F 97% 30.01 in 2.0 mi NNE 6.9 mph - N/A   Clear
6:30 AM 70.0 °F - 69.1 °F 97% 30.04 in 1.5 mi NNE 4.6 mph - N/A   Partly Cloudy
6:40 AM 70.0 °F - 68.0 °F 93% 30.05 in 1.0 mi NNE 4.6 mph - N/A   Mostly Cloudy
6:53 AM 70.0 °F - 68.0 °F 93% 30.03 in 0.8 mi NNE 5.8 mph - N/A   Mostly Cloudy
7:03 AM 70.0 °F - 69.1 °F 97% 30.05 in 1.0 mi NNE 5.8 mph - N/A   Overcast
7:53 AM 72.0 °F - 70.0 °F 93% 30.06 in 1.8 mi NNE 5.8 mph - N/A   Scattered Clouds
8:00 AM 72.0 °F - 70.0 °F 93% 30.08 in 2.0 mi NNE 5.8 mph - N/A   Partly Cloudy
8:24 AM 73.0 °F - 70.0 °F 90% 30.09 in 3.0 mi NNE 6.9 mph - N/A   Clear
8:53 AM 73.9 °F - 70.0 °F 87% 30.08 in 4.0 mi NE 4.6 mph - N/A   Clear
9:53 AM 79.0 °F - 66.9 °F 66% 30.08 in 10.0 mi ENE 6.9 mph - N/A   Clear
10:53 AM 81.0 °F 82.2 °F 63.0 °F 54% 30.09 in 10.0 mi East 6.9 mph - N/A   Clear
11:53 AM 82.0 °F 83.1 °F 63.0 °F 52% 30.09 in 10.0 mi ESE 5.8 mph - N/A   Clear
12:53 PM 84.9 °F 85.9 °F 63.0 °F 48% 30.08 in 10.0 mi East 6.9 mph - N/A   Clear
1:53 PM 87.1 °F 87.5 °F 62.1 °F 43% 30.07 in 10.0 mi East 8.1 mph - N/A   Clear
2:53 PM 86.0 °F 86.8 °F 63.0 °F 46% 30.06 in 10.0 mi ENE 9.2 mph - N/A   Clear
3:53 PM 88.0 °F 89.3 °F 64.0 °F 45% 30.04 in 10.0 mi ENE 6.9 mph - N/A   Clear
4:53 PM 86.0 °F 87.6 °F 64.9 °F 49% 30.03 in 10.0 mi NE 5.8 mph - N/A   Clear
5:53 PM 84.0 °F 86.3 °F 66.0 °F 55% 30.02 in 10.0 mi ENE 5.8 mph - N/A   Clear
6:53 PM 82.9 °F 85.0 °F 66.0 °F 56% 30.01 in 10.0 mi ENE 6.9 mph - N/A   Clear
7:53 PM 81.0 °F 83.3 °F 66.9 °F 62% 30.02 in 10.0 mi East 3.5 mph - N/A   Clear
8:53 PM 79.0 °F - 66.9 °F 66% 30.02 in 10.0 mi East 4.6 mph - N/A   Mostly Cloudy
9:53 PM 77.0 °F - 68.0 °F 74% 30.05 in 10.0 mi Calm Calm - N/A   Partly Cloudy
10:53 PM 75.9 °F - 68.0 °F 76% 30.06 in 10.0 mi East 3.5 mph - N/A   Scattered Clouds
11:53 PM 75.9 °F - 69.1 °F 79% 30.06 in 10.0 mi Calm Calm - N/A   Overcast